Flag for U.S.A. Weather past 2 weeks in Annapolis, Maryland, U.S.A.

Now
78 °F

Broken clouds.


Feels Like: 80 °F
Forecast: 70 / 84 °F
Wind: 12 mph from Northwest

Location: Annapolis - United States Naval Academy

Current Time: May 27, 2015 at 6:25:01 PM

Latest Report: May 27, 2015 at 4:54 PM


Visibility: 10 mi

Pressure: 30.13 "Hg

Humidity: 58%

Dew point: 62 °F

Location of AnnapolisLocation

Historic Weather in Annapolis — Graph

°F

Annapolis temperature yesterday

Maximum temperature yesterday: 81 °F (at 2:54 PM)
Minimum temperature yesterday: 66 °F (at 3:54 AM)
Average temperature yesterday: 73 °F

Past Weeks' High & Low Weather Summary

 TemperatureHumidityPressure
High87 °F (May 12, 4:54 PM)93% (May 18, 5:54 AM)30.48 "Hg (May 18, 5:54 AM)
Low50 °F (May 21, 1:01 PM)23% (May 23, 10:54 AM)29.83 "Hg (May 12, 5:54 PM)
Average67 °F64%30.16 "Hg
* Reported May 12 4:54 PM — May 27 4:54 PM, Annapolis, Weather by CustomWeather, © 2015

Note: Actual official high and low records may vary slightly from our data, if they occured in-between our weather recording intervals... More about our weather records

Advertising

Annapolis weather history for previous 24 hours

 ConditionsComfort  
Time TempWeatherWind HumidityBarometerVisibility
4:54 PM
Wed, May 27
78 °FBroken clouds.12 mph58%30.13 "Hg10 mi
3:54 PM81 °FScattered clouds.14 mph67%30.11 "Hg10 mi
2:54 PM82 °FPassing clouds.13 mph65%30.12 "Hg10 mi
1:54 PM81 °FSunny.12 mph67%30.14 "Hg10 mi
12:54 PM80 °FSunny.12 mph71%30.15 "Hg10 mi
11:54 AM78 °FScattered clouds.13 mph74%30.17 "Hg10 mi
10:54 AM77 °FPartly sunny.13 mph77%30.17 "Hg10 mi
9:54 AM75 °FOvercast.8 mph79%30.17 "Hg10 mi
8:54 AM75 °FOvercast.6 mph79%30.18 "Hg10 mi
7:54 AM73 °FOvercast.6 mph81%30.18 "Hg10 mi
6:54 AM72 °FOvercast.7 mph84%30.17 "Hg10 mi
5:54 AM71 °FOvercast.6 mph87%30.16 "Hg10 mi
4:54 AM71 °FPassing clouds.5 mph87%30.15 "Hg10 mi
3:54 AM70 °FClear.5 mph87%30.15 "Hg10 mi
2:54 AM70 °FClear.7 mph87%30.15 "Hg10 mi
1:54 AM70 °FClear.7 mph87%30.16 "Hg10 mi
12:54 AM70 °FClear.12 mph87%30.16 "Hg10 mi
11:54 PM
Tue, May 26
71 °FClear.14 mph84%30.17 "Hg10 mi
10:54 PM72 °FClear.16 mph81%30.17 "Hg10 mi
9:54 PM73 °FClear.20 mph76%30.17 "Hg10 mi
8:54 PM73 °FSunny.14 mph74%30.16 "Hg10 mi
7:54 PM74 °FSunny.14 mph71%30.15 "Hg10 mi
6:54 PM75 °FSunny.15 mph69%30.15 "Hg10 mi
Weather by CustomWeather, © 2015

See weather overviewHow to use our weather pages